Skip to main content
SPAQ logo

SPAQ · Horizon Kinetics SPAC Active ETF ETF

Alerts for SPAQ
$93.79 -0.01 (-0.01%) At close · Sep 4

Weekly off-exchange (dark pool / OTC) trading volume reported to FINRA under its OTC/ATS Transparency data. ATS volume is executed on alternating trading systems (dark pools); non-ATS OTC is other over-the-counter dealer volume. The off-exchange share is total off-exchange volume as a percentage of consolidated weekly trading volume for the same Monday–Friday week.

Off-Exchange Volume History

Week Start ATS Volume Non-ATS OTC Volume Total Off-Exchange % of FINRA Weekly Volume
2026-07-27 0 232 232 46.4%
2026-07-20 0 58 58 8.3%
2026-07-13 0 411 411 68.5%
2026-07-06 0 102 102 17.0%
2026-06-29 22 183 205 34.2%
2026-06-22 0 30 30 6.0%
2026-06-15 0 281 281 35.1%
2026-06-08 0 35 35 7.0%
2026-06-01 0 76 76 15.2%
2026-05-25 0 16 16 4.0%
2026-05-18 0 20 20 4.0%
2026-05-11 0 60 60 12.0%
2026-05-04 0 333 333 9.0%
2026-04-27 0 59 59 11.8%
2026-04-20 0 62 62 12.4%
2026-04-13 0 164 164 9.6%
2026-04-06 0 621 621 38.8%
2026-03-30 0 16 16 4.0%
2026-03-23 0 40 40 8.0%
2026-03-16 0 59 59 11.8%
2026-03-09 0 43 43 6.1%
2026-03-02 0 25 25 4.2%
2026-02-23 0 21 21 4.2%
2026-02-16 60 87 147 29.4%
2026-02-09 0 43 43 8.6%
2026-02-02 537 38 575 31.9%
2026-01-26 0 62 62 5.6%
2026-01-19 105 850 955 16.2%
2026-01-12 0 249 249 31.1%
2026-01-05 0 540 540 38.6%
2025-12-29 0 44 44 11.0%
2025-12-22 0 2,095 2,095 51.1%
2025-12-15 9 3,439 3,448 34.5%
2025-12-08 2 25 27 5.4%
2025-12-01 0 326 326 46.6%
2025-11-24 0 113 113 28.2%
2025-11-17 300 928 1,228 68.2%
2025-11-10 603 206 809 11.1%
2025-11-03 0 118 118 19.7%
2025-10-27 0 579 579 23.2%
2025-10-20 0 1,245 1,245 16.2%
2025-10-13 0 5,387 5,387 53.9%
2025-10-06 0 41 41 8.2%
2025-09-29 0 27 27 5.4%
2025-09-22 0 150 150 15.0%
2025-09-15 100 350 450 45.0%
2025-09-08 0 63 63 12.6%
Showing 1–47 of 47 weeks